Terminal Aerodrome Forecast
Issued by NWS Des Moines, IA

Home | Current Version | Previous Version | Text Only | Print | Product List | Glossary On
Versions: 1 2 3 4 5 6 7 8 9 10 11 12 13 14 15 16 17 18 19 20 21 22 23 24 25 26 27 28 29 30 31
000
FTUS43 KDMX 051736
TAFDSM
TAF
KDSM 051736Z 0518/0618 28007KT P6SM SKC
     FM052300 16006KT P6SM SKC
     FM060400 17009KT P6SM SCT040 BKN080
     FM061500 23011KT P6SM SCT008 SCT100=

USA.gov is the U.S. government's official web portal to all federal, state and local government web resources and services.